Weather History for Detroit Lakes, MN

Change the Weather History Date:

Monday, October 10, 2011

  Actual Average Record
Temperature  
Mean Temperature 56 °F -  
Max Temperature 62 °F 56 °F 83 °F (1938)
Min Temperature 51 °F 35 °F 11 °F (1935)
Degree Days  
Heating Degree Days 8    
Growing Degree Days 6 (Base 50)    
Moisture  
Dew Point 52 °F    
Average Humidity 80    
Maximum Humidity 94    
Minimum Humidity 63    
Precipitation  
Precipitation 0.04 in - - ()
Sea Level Pressure  
Sea Level Pressure 29.92 in    
Wind  
Wind Speed 13 mph (SSE)    
Max Wind Speed 21 mph    
Max Gust Speed 26 mph    
Visibility 10 miles    
Events Rain    
Averages and records for this station are not official NWS values.
T = Trace of Precipitation, MM = Missing Value Source: NWS Daily Summary

Daily Weather History Graph

Daily Weather History Graph

Search for Another Location

Airport:

Trip Planner

Search our weather history database for the weather conditions in past years. The results will help you decide how hot, cold, wet, or windy it might be!

Date:

Astronomy

Oct. 10, 2011 Rise Set
Actual Time 7:34 AM CDT 6:46 PM CDT
Civil Twilight 7:03 AM CDT 7:16 PM CDT
Nautical Twilight 6:28 AM CDT 7:51 PM CDT
Astronomical Twilight 5:53 AM CDT 8:26 PM CDT
Moon 5:50 PM CDT (10/10) 6:14 AM CDT (10/10)
Length of Visible Light 12h 12m
Length of Day
11h 12m
Waxing Gibbous, 98% of the Moon is Illuminated
Oct 10
Waxing Gibbous
Oct 11
Full
Oct 19
Last Quarter
Oct 26
New
Nov 2
First Quarter

Hourly Weather History & Observations

Time (CDT) Temp. Dew Point Humidity Pressure Visibility Wind Dir Wind Speed Gust Speed Precip Events Conditions
12:13 AM 60.8 °F 55.4 °F 82% 30.04 in 10.0 mi SE 13.8 mph - N/A   Clear
12:33 AM 60.8 °F 53.6 °F 77% 30.04 in 10.0 mi SE 13.8 mph - N/A   Clear
12:54 AM 60.8 °F 53.6 °F 77% 30.03 in 10.0 mi SE 12.7 mph - N/A   Clear
1:13 AM 60.8 °F 53.6 °F 77% 30.03 in 10.0 mi SE 13.8 mph 18.4 mph N/A   Clear
1:33 AM 60.8 °F 53.6 °F 77% 30.03 in 10.0 mi SE 13.8 mph 17.3 mph N/A   Clear
1:54 AM 60.8 °F 53.6 °F 77% 30.02 in 10.0 mi SE 13.8 mph 18.4 mph N/A   Clear
2:13 AM 60.8 °F 53.6 °F 77% 30.02 in 10.0 mi SE 13.8 mph - N/A   Clear
2:33 AM 60.8 °F 51.8 °F 72% 30.02 in 10.0 mi SE 13.8 mph - N/A   Clear
2:54 AM 60.8 °F 51.8 °F 72% 30.01 in 10.0 mi SE 13.8 mph 19.6 mph N/A   Clear
3:33 AM 60.8 °F 51.8 °F 72% 30.00 in 10.0 mi SE 10.4 mph - N/A   Clear
3:53 AM 59.0 °F 51.8 °F 77% 29.99 in 10.0 mi SE 12.7 mph - N/A   Clear
4:13 AM 59.0 °F 51.8 °F 77% 29.99 in 10.0 mi SE 13.8 mph - N/A   Clear
4:33 AM 59.0 °F 51.8 °F 77% 29.98 in 10.0 mi SE 13.8 mph - N/A   Clear
5:13 AM 59.0 °F 51.8 °F 77% 29.98 in 10.0 mi SE 10.4 mph - N/A   Clear
5:33 AM 59.0 °F 51.8 °F 77% 29.97 in 10.0 mi SE 10.4 mph - N/A   Clear
5:54 AM 57.2 °F 51.8 °F 82% 29.97 in 10.0 mi SE 10.4 mph - N/A   Clear
6:13 AM 57.2 °F 51.8 °F 82% 29.97 in 10.0 mi SE 10.4 mph - N/A   Clear
6:33 AM 55.4 °F 51.8 °F 88% 29.95 in 10.0 mi SE 10.4 mph - N/A   Clear
6:54 AM 55.4 °F 51.8 °F 88% 29.95 in 10.0 mi SE 11.5 mph 17.3 mph N/A   Clear
7:13 AM 55.4 °F 51.8 °F 88% 29.95 in 10.0 mi SE 12.7 mph - N/A   Clear
7:34 AM 55.4 °F 51.8 °F 88% 29.95 in 10.0 mi SE 11.5 mph 17.3 mph N/A   Clear
8:13 AM 57.2 °F 51.8 °F 82% 29.94 in 10.0 mi SSE 11.5 mph - N/A   Clear
8:34 AM 57.2 °F 51.8 °F 82% 29.94 in 10.0 mi SSE 10.4 mph - N/A   Clear
8:53 AM 57.2 °F 51.8 °F 82% 29.94 in 10.0 mi SSE 11.5 mph - N/A   Clear
9:13 AM 59.0 °F 51.8 °F 77% 29.95 in 10.0 mi SSE 10.4 mph - N/A   Clear
9:33 AM 59.0 °F 51.8 °F 77% 29.94 in 10.0 mi SSE 10.4 mph - N/A   Clear
9:53 AM 59.0 °F 51.8 °F 77% 29.94 in 10.0 mi SSE 9.2 mph - N/A   Scattered Clouds
10:33 AM 60.8 °F 53.6 °F 77% 29.93 in 10.0 mi South 13.8 mph - N/A   Scattered Clouds
10:53 AM 60.8 °F 53.6 °F 77% 29.93 in 10.0 mi SSE 13.8 mph - N/A   Scattered Clouds
11:14 AM 60.8 °F 53.6 °F 77% 29.93 in 10.0 mi South 13.8 mph - N/A   Mostly Cloudy
11:33 AM 60.8 °F 53.6 °F 77% 29.93 in 10.0 mi South 11.5 mph - N/A Rain Light Rain
11:53 AM 59.0 °F 55.4 °F 88% 29.93 in 7.0 mi South 11.5 mph - 0.01 in Rain Light Rain
11:55 AM 59.0 °F 55.4 °F 88% 29.93 in 7.0 mi South 11.5 mph - 0.01 in Rain Light Rain
12:14 PM 59.0 °F 55.4 °F 88% 29.93 in 10.0 mi South 11.5 mph - N/A Rain Light Rain
12:33 PM 59.0 °F 55.4 °F 88% 29.92 in 10.0 mi South 12.7 mph - N/A Rain Light Rain
12:53 PM 59.0 °F 55.4 °F 88% 29.92 in 10.0 mi South 13.8 mph - 0.01 in Rain Light Rain
1:14 PM 59.0 °F 55.4 °F 88% 29.91 in 10.0 mi South 11.5 mph - 0.01 in Rain Light Rain
1:33 PM 59.0 °F 55.4 °F 88% 29.90 in 10.0 mi SSE 11.5 mph - 0.01 in Rain Light Rain
1:53 PM 59.0 °F 55.4 °F 88% 29.89 in 10.0 mi South 16.1 mph - 0.02 in Rain Light Rain
1:55 PM 59.0 °F 55.4 °F 88% 29.89 in 10.0 mi South 13.8 mph - 0.02 in Rain Light Rain
2:14 PM 59.0 °F 55.4 °F 88% 29.88 in 10.0 mi South 16.1 mph - N/A   Mostly Cloudy
2:33 PM 60.8 °F 55.4 °F 82% 29.87 in 10.0 mi South 16.1 mph 20.7 mph N/A   Scattered Clouds
2:53 PM 60.8 °F 55.4 °F 82% 29.87 in 10.0 mi SSE 17.3 mph 23.0 mph N/A   Mostly Cloudy
3:14 PM 62.6 °F 53.6 °F 72% 29.85 in 10.0 mi South 18.4 mph 23.0 mph N/A   Scattered Clouds
3:53 PM 62.6 °F 53.6 °F 72% 29.84 in 10.0 mi South 19.6 mph 24.2 mph N/A   Scattered Clouds
4:14 PM 60.8 °F 53.6 °F 77% 29.84 in 10.0 mi South 16.1 mph - N/A   Mostly Cloudy
4:33 PM 60.8 °F 53.6 °F 77% 29.83 in 10.0 mi South 15.0 mph - N/A   Mostly Cloudy
4:53 PM 62.6 °F 53.6 °F 72% 29.83 in 10.0 mi South 17.3 mph 20.7 mph N/A   Mostly Cloudy
5:13 PM 62.6 °F 53.6 °F 72% 29.83 in 10.0 mi South 12.7 mph 21.9 mph N/A   Mostly Cloudy
5:33 PM 62.6 °F 51.8 °F 68% 29.83 in 10.0 mi SSW 20.7 mph 26.5 mph N/A   Scattered Clouds
5:54 PM 62.6 °F 50.0 °F 63% 29.83 in 10.0 mi SSW 17.3 mph - N/A   Scattered Clouds
6:33 PM 60.8 °F 48.2 °F 63% 29.83 in 10.0 mi SSW 10.4 mph 19.6 mph N/A   Clear
7:13 PM 59.0 °F 50.0 °F 72% 29.83 in 10.0 mi SSW 10.4 mph - N/A   Scattered Clouds
7:33 PM 59.0 °F 50.0 °F 72% 29.83 in 10.0 mi SSW 8.1 mph - N/A   Mostly Cloudy
7:54 PM 59.0 °F 50.0 °F 72% 29.84 in 10.0 mi SSW 6.9 mph - N/A   Scattered Clouds
8:33 PM 55.4 °F 48.2 °F 77% 29.84 in 10.0 mi SSW 6.9 mph - N/A   Clear
8:54 PM 55.4 °F 48.2 °F 77% 29.84 in 10.0 mi South 6.9 mph - N/A   Clear
9:13 PM 53.6 °F 48.2 °F 82% 29.84 in 10.0 mi SSE 5.8 mph - N/A   Clear
9:34 PM 53.6 °F 48.2 °F 82% 29.84 in 10.0 mi SSE 5.8 mph - N/A   Clear
9:53 PM 51.8 °F 48.2 °F 88% 29.84 in 10.0 mi SSE 6.9 mph - N/A   Clear
10:34 PM 53.6 °F 50.0 °F 88% 29.83 in 10.0 mi SE 5.8 mph - N/A   Clear
10:54 PM 53.6 °F 50.0 °F 88% 29.82 in 10.0 mi SE 6.9 mph - N/A   Clear
11:13 PM 53.6 °F 50.0 °F 88% 29.82 in 10.0 mi SSE 8.1 mph - N/A   Scattered Clouds
11:33 PM 53.6 °F 51.8 °F 94% 29.81 in 10.0 mi SSE 6.9 mph - N/A   Scattered Clouds